• In Hungary
  • List of Countries
  • For 7 days
  • Water Temperature
  • Satellite Maps
  • Weather Map
  • News
  • Weather Widgets
  • user-avatar
    Login

    Hourly Weather Chroscin

    Today, 19 September, Wednesday

    Time Temperature Precipitation Wind Pressure Humidity
    00:00 +19°C° 0 mm 3 mps 752 mmHg 70%
    01:00 +18°C° 0 mm 3 mps 752 mmHg 71%
    02:00 +18°C° 0 mm 3 mps 752 mmHg 72%
    03:00 +17°C° 0 mm 3 mps 752 mmHg 72%
    04:00 +17°C° 0 mm 3 mps 752 mmHg 72%
    05:00 +18°C° 0 mm 3 mps 752 mmHg 70%
    06:00 +18°C° 0 mm 3 mps 752 mmHg 68%
    07:00 +19°C° 0 mm 3 mps 752 mmHg 66%
    08:00 +21°C° 0 mm 3 mps 752 mmHg 61%
    09:00 +24°C° 0 mm 3 mps 752 mmHg 56%
    10:00 +26°C° 0 mm 4 mps 752 mmHg 51%
    11:00 +27°C° 0 mm 4 mps 752 mmHg 49%
    12:00 +28°C° 0 mm 4 mps 752 mmHg 46%
    13:00 +29°C° 0 mm 4 mps 752 mmHg 44%
    14:00 +29°C° 0 mm 3 mps 752 mmHg 46%
    15:00 +29°C° 0 mm 3 mps 752 mmHg 47%
    16:00 +29°C° 0 mm 2 mps 752 mmHg 48%
    17:00 +27°C° 0 mm 2 mps 752 mmHg 54%
    18:00 +25°C° 0 mm 2 mps 752 mmHg 59%
    19:00 +23°C° 0 mm 2 mps 752 mmHg 64%
    20:00 +23°C° 0 mm 2 mps 753 mmHg 66%
    21:00 +21°C° 0 mm 2 mps 753 mmHg 68%
    22:00 +21°C° 0 mm 2 mps 753 mmHg 69%
    23:00 +20°C° 0 mm 2 mps 753 mmHg 71%

    Tomorrow, 20 September, Thursday

    Time Temperature Precipitation Wind Pressure Humidity
    00:00 +20°C° 0 mm 2 mps 753 mmHg 72%
    01:00 +20°C° 0 mm 1 mps 753 mmHg 74%
    02:00 +20°C° 0 mm 1 mps 753 mmHg 75%
    03:00 +20°C° 0 mm 1 mps 753 mmHg 76%
    04:00 +19°C° 0 mm 1 mps 753 mmHg 77%
    05:00 +19°C° 0 mm 2 mps 753 mmHg 76%
    06:00 +20°C° 0 mm 2 mps 753 mmHg 75%
    07:00 +20°C° 0 mm 2 mps 753 mmHg 73%
    08:00 +23°C° 0 mm 2 mps 753 mmHg 67%
    09:00 +25°C° 0 mm 3 mps 753 mmHg 60%
    10:00 +27°C° 0 mm 3 mps 753 mmHg 54%
    11:00 +28°C° 0 mm 3 mps 753 mmHg 51%
    12:00 +29°C° 0 mm 3 mps 753 mmHg 47%
    13:00 +30°C° 0 mm 3 mps 753 mmHg 44%
    14:00 +30°C° 0 mm 3 mps 753 mmHg 45%
    15:00 +29°C° 0 mm 3 mps 752 mmHg 46%
    16:00 +29°C° 0 mm 2 mps 752 mmHg 47%
    17:00 +27°C° 0 mm 2 mps 752 mmHg 51%
    18:00 +26°C° 0 mm 2 mps 752 mmHg 56%
    19:00 +24°C° 0 mm 2 mps 752 mmHg 61%
    20:00 +23°C° 0 mm 2 mps 752 mmHg 62%
    21:00 +23°C° 0 mm 2 mps 752 mmHg 64%
    22:00 +21°C° 0 mm 2 mps 752 mmHg 66%
    23:00 +21°C° 0 mm 2 mps 752 mmHg 66%

    Day after tomorrow, 21 September, Friday

    Time Temperature Precipitation Wind Pressure Humidity
    00:00 +20°C° 0 mm 2 mps 752 mmHg 66%
    01:00 +20°C° 0 mm 2 mps 752 mmHg 67%
    02:00 +19°C° 0 mm 2 mps 752 mmHg 66%
    03:00 +19°C° 0 mm 2 mps 752 mmHg 65%
    04:00 +18°C° 0 mm 3 mps 751 mmHg 64%
    05:00 +19°C° 0 mm 3 mps 751 mmHg 63%
    06:00 +19°C° 0 mm 3 mps 751 mmHg 62%
    07:00 +20°C° 0 mm 3 mps 751 mmHg 61%
    08:00 +22°C° 0 mm 4 mps 751 mmHg 56%
    09:00 +25°C° 0 mm 5 mps 751 mmHg 51%
    10:00 +27°C° 0 mm 5 mps 750 mmHg 46%
    11:00 +27°C° 0 mm 6 mps 750 mmHg 43%
    12:00 +28°C° 0 mm 6 mps 749 mmHg 40%
    13:00 +29°C° 0 mm 6 mps 748 mmHg 38%
    14:00 +29°C° 0 mm 6 mps 748 mmHg 39%
    15:00 +29°C° 0 mm 6 mps 747 mmHg 40%
    16:00 +28°C° 0 mm 5 mps 747 mmHg 41%
    17:00 +27°C° 0 mm 5 mps 746 mmHg 43%
    18:00 +25°C° 0 mm 5 mps 746 mmHg 46%
    19:00 +23°C° 0 mm 5 mps 746 mmHg 49%
    20:00 +23°C° 0 mm 5 mps 746 mmHg 49%
    21:00 +23°C° 0 mm 6 mps 746 mmHg 49%
    22:00 +23°C° 0 mm 6 mps 746 mmHg 49%
    23:00 +21°C° 0 mm 7 mps 746 mmHg 55%

    22 September, Saturday

    Time Temperature Precipitation Wind Pressure Humidity
    00:00 +20°C° 0 mm 7 mps 747 mmHg 61%
    01:00 +17°C° 0 mm 8 mps 748 mmHg 68%
    02:00 +15°C° 0.4 mm 7 mps 749 mmHg 70%
    03:00 +14°C° 0.4 mm 6 mps 749 mmHg 72%
    04:00 +12°C° 0.4 mm 5 mps 750 mmHg 74%
    05:00 +12°C° 0.8 mm 5 mps 751 mmHg 76%
    06:00 +10°C° 0.8 mm 5 mps 751 mmHg 78%
    07:00 +11°C° 0.8 mm 4 mps 752 mmHg 80%
    08:00 +12°C° 0 mm 5 mps 752 mmHg 75%
    09:00 +12°C° 0 mm 5 mps 753 mmHg 71%
    10:00 +13°C° 0 mm 5 mps 753 mmHg 66%
    11:00 +13°C° 0 mm 6 mps 753 mmHg 63%
    12:00 +14°C° 0 mm 6 mps 753 mmHg 60%
    13:00 +14°C° 0 mm 6 mps 753 mmHg 57%
    14:00 +14°C° 0 mm 6 mps 753 mmHg 55%
    15:00 +15°C° 0 mm 5 mps 753 mmHg 53%
    16:00 +15°C° 0 mm 5 mps 752 mmHg 51%
    17:00 +14°C° 0.1 mm 5 mps 753 mmHg 55%
    18:00 +13°C° 0.1 mm 4 mps 753 mmHg 60%
    19:00 +12°C° 0.1 mm 3 mps 753 mmHg 64%
    20:00 +12°C° 0 mm 3 mps 753 mmHg 66%
    21:00 +11°C° 0 mm 3 mps 753 mmHg 68%
    22:00 +11°C° 0 mm 3 mps 753 mmHg 70%
    23:00 +10°C° 0 mm 3 mps 753 mmHg 71%

    23 September, Sunday

    Time Temperature Precipitation Wind Pressure Humidity
    00:00 +10°C° 0 mm 4 mps 753 mmHg 72%
    01:00 +10°C° 0 mm 4 mps 753 mmHg 73%
    02:00 +8°C° 0 mm 4 mps 753 mmHg 75%
    03:00 +8°C° 0 mm 4 mps 753 mmHg 76%
    04:00 +8°C° 0 mm 4 mps 754 mmHg 77%
    05:00 +8°C° 0 mm 4 mps 754 mmHg 75%
    06:00 +8°C° 0 mm 5 mps 754 mmHg 73%
    07:00 +9°C° 0 mm 5 mps 754 mmHg 71%
    08:00 +10°C° 0 mm 6 mps 754 mmHg 64%
    09:00 +13°C° 0 mm 6 mps 754 mmHg 57%
    10:00 +14°C° 0 mm 6 mps 754 mmHg 50%
    11:00 +15°C° 0 mm 6 mps 753 mmHg 47%
    12:00 +15°C° 0 mm 6 mps 753 mmHg 44%
    13:00 +16°C° 0 mm 5 mps 752 mmHg 41%
    14:00 +16°C° 0 mm 5 mps 752 mmHg 41%
    15:00 +17°C° 0 mm 4 mps 751 mmHg 42%
    16:00 +15°C° 0 mm 4 mps 751 mmHg 42%
    17:00 +14°C° 0 mm 3 mps 750 mmHg 44%
    18:00 +14°C° 0 mm 3 mps 749 mmHg 47%
    19:00 +13°C° 0 mm 3 mps 748 mmHg 50%
    20:00 +12°C° 1.1 mm 3 mps 748 mmHg 59%
    21:00 +11°C° 1.1 mm 4 mps 747 mmHg 69%
    22:00 +11°C° 1.1 mm 4 mps 746 mmHg 78%
    23:00 +10°C° 1.3 mm 5 mps 744 mmHg 79%

    24 September, Monday

    Time Temperature Precipitation Wind Pressure Humidity
    00:00 +10°C° 1.3 mm 6 mps 743 mmHg 80%
    01:00 +10°C° 1.3 mm 7 mps 741 mmHg 81%
    02:00 +10°C° 2.1 mm 7 mps 740 mmHg 82%
    03:00 +10°C° 2.1 mm 8 mps 738 mmHg 84%
    04:00 +10°C° 2.1 mm 8 mps 737 mmHg 85%
    05:00 +11°C° 2.2 mm 8 mps 736 mmHg 85%
    06:00 +12°C° 2.2 mm 8 mps 736 mmHg 84%
    07:00 +13°C° 2.2 mm 8 mps 735 mmHg 84%
    08:00 +12°C° 0.1 mm 8 mps 735 mmHg 80%
    09:00 +12°C° 0.1 mm 8 mps 735 mmHg 76%
    10:00 +12°C° 0.1 mm 8 mps 734 mmHg 73%
    11:00 +12°C° 0.5 mm 8 mps 734 mmHg 75%
    12:00 +12°C° 0.5 mm 8 mps 733 mmHg 78%
    13:00 +12°C° 0.5 mm 8 mps 733 mmHg 80%
    14:00 +12°C° 0.5 mm 8 mps 733 mmHg 81%
    15:00 +12°C° 0.5 mm 8 mps 733 mmHg 81%
    16:00 +11°C° 0.5 mm 9 mps 734 mmHg 82%
    17:00 +11°C° 0.4 mm 9 mps 734 mmHg 82%
    18:00 +11°C° 0.4 mm 10 mps 735 mmHg 83%
    19:00 +11°C° 0.4 mm 10 mps 735 mmHg 83%
    20:00 +11°C° 0.8 mm 11 mps 736 mmHg 83%
    21:00 +9°C° 0.8 mm 12 mps 737 mmHg 82%
    22:00 +9°C° 0.8 mm 13 mps 739 mmHg 81%
    23:00 +9°C° 0.4 mm 13 mps 740 mmHg 80%
    Show more